Time,TemperatureF,DewpointF,PressureIn,WindDirection,WindDirectionDegrees,WindSpeedMPH,WindSpeedGustMPH,Humidity,HourlyPrecipIn,Conditions,Clouds,dailyrainin,SolarRadiationWatts/m^2,SoftwareType,DateUTC
2013-09-03 00:23:00,78.0,71.0,-100.00,South,188,0.0,0.0,79,0.00,,,0.00,0.000000,,2013-09-03 05:23:00,
2013-09-03 00:34:00,78.0,71.0,-100.00,South,188,0.0,0.0,79,0.00,,,0.00,0.000000,,2013-09-03 05:34:00,
2013-09-03 00:43:00,78.0,71.0,-100.00,South,188,0.0,0.0,79,0.00,,,0.00,0.000000,,2013-09-03 05:43:00,
2013-09-03 00:52:00,78.0,71.0,-100.00,South,188,0.0,0.0,79,0.00,,,0.00,0.000000,,2013-09-03 05:52:00,
2013-09-03 01:02:00,78.0,71.0,-100.00,South,188,0.0,0.0,79,0.00,,,0.00,0.000000,,2013-09-03 06:02:00,
2013-09-03 01:43:00,77.0,70.0,-100.00,SSW,211,0.0,0.0,79,0.00,,,0.00,0.000000,,2013-09-03 06:43:00,
2013-09-03 01:52:00,77.0,70.0,-100.00,SSW,211,0.0,0.0,79,0.00,,,0.00,0.000000,,2013-09-03 06:52:00,
2013-09-03 02:02:00,77.0,70.0,-100.00,SSW,211,0.0,0.0,79,0.00,,,0.00,0.000000,,2013-09-03 07:02:00,
2013-09-03 02:03:00,76.0,71.0,-100.00,SSW,211,0.0,0.0,84,0.00,,,0.00,0.000000,,2013-09-03 07:03:00,
2013-09-03 02:22:00,76.0,71.0,-100.00,SSW,211,0.0,0.0,84,0.00,,,0.00,0.000000,,2013-09-03 07:22:00,
2013-09-03 02:32:00,76.0,71.0,-100.00,SSW,211,0.0,0.0,84,0.00,,,0.00,0.000000,,2013-09-03 07:32:00,
2013-09-03 02:42:00,76.0,71.0,-100.00,SSW,211,0.0,0.0,84,0.00,,,0.00,0.000000,,2013-09-03 07:42:00,
2013-09-03 02:53:00,76.0,71.0,-100.00,SSW,211,0.0,0.0,84,0.00,,,0.00,0.000000,,2013-09-03 07:53:00,
2013-09-03 03:22:00,75.0,71.0,-100.00,SSW,202,0.0,0.0,87,0.00,,,0.00,0.000000,,2013-09-03 08:22:00,
2013-09-03 03:32:00,75.0,71.0,-100.00,SSW,202,0.0,0.0,87,0.00,,,0.00,0.000000,,2013-09-03 08:32:00,
2013-09-03 03:42:00,75.0,71.0,-100.00,SSW,202,0.0,0.0,87,0.00,,,0.00,0.000000,,2013-09-03 08:42:00,
2013-09-03 03:52:00,75.0,71.0,-100.00,SSW,202,0.0,0.0,87,0.00,,,0.00,0.000000,,2013-09-03 08:52:00,
2013-09-03 04:02:00,75.0,71.0,-100.00,SSW,202,0.0,0.0,87,0.00,,,0.00,0.000000,,2013-09-03 09:02:00,
2013-09-03 04:03:00,74.0,71.0,-100.00,SW,219,0.0,0.0,91,0.00,,,0.00,0.000000,,2013-09-03 09:03:00,
2013-09-03 04:43:00,74.0,71.0,-100.00,SW,219,0.0,0.0,91,0.00,,,0.00,0.000000,,2013-09-03 09:43:00,
2013-09-03 04:53:00,74.0,71.0,-100.00,SW,219,0.0,0.0,91,0.00,,,0.00,0.000000,,2013-09-03 09:53:00,
2013-09-03 05:23:00,75.0,73.0,-100.00,South,174,0.0,0.0,93,0.00,,,0.00,0.000000,,2013-09-03 10:23:00,
2013-09-03 05:33:00,75.0,73.0,-100.00,South,174,0.0,0.0,93,0.00,,,0.00,0.000000,,2013-09-03 10:33:00,
2013-09-03 05:42:00,75.0,73.0,-100.00,South,174,0.0,0.0,93,0.00,,,0.00,0.000000,,2013-09-03 10:42:00,
2013-09-03 05:53:00,75.0,73.0,-100.00,South,174,0.0,0.0,93,0.00,,,0.00,0.000000,,2013-09-03 10:53:00,
2013-09-03 06:02:00,75.0,73.0,-100.00,South,174,0.0,0.0,93,0.00,,,0.00,0.000000,,2013-09-03 11:02:00,
2013-09-03 06:23:00,74.0,72.0,-100.00,SE,127,0.0,0.0,92,0.00,,,0.00,0.000000,,2013-09-03 11:23:00,
2013-09-03 06:33:00,74.0,72.0,-100.00,SE,127,0.0,0.0,92,0.00,,,0.00,0.000000,,2013-09-03 11:33:00,
2013-09-03 06:43:00,74.0,72.0,-100.00,SE,127,0.0,0.0,92,0.00,,,0.00,0.000000,,2013-09-03 11:43:00,
2013-09-03 06:52:00,74.0,72.0,-100.00,SE,127,0.0,0.0,92,0.00,,,0.00,0.000000,,2013-09-03 11:52:00,
2013-09-03 07:02:00,74.0,72.0,-100.00,SE,127,0.0,0.0,92,0.00,,,0.00,0.000000,,2013-09-03 12:02:00,
2013-09-03 07:42:00,73.0,71.0,-100.00,ESE,102,0.0,0.0,94,0.00,,,0.00,1.000000,,2013-09-03 12:42:00,
2013-09-03 07:52:00,73.0,71.0,-100.00,ESE,102,0.0,0.0,94,0.00,,,0.00,1.000000,,2013-09-03 12:52:00,
2013-09-03 08:02:00,73.0,71.0,-100.00,ESE,102,0.0,0.0,94,0.00,,,0.00,1.000000,,2013-09-03 13:02:00,
2013-09-03 08:42:00,77.0,74.0,-100.00,SE,140,0.0,0.0,90,0.00,,,0.00,75.000000,,2013-09-03 13:42:00,
2013-09-03 08:52:00,77.0,74.0,-100.00,SE,140,0.0,0.0,90,0.00,,,0.00,75.000000,,2013-09-03 13:52:00,
2013-09-03 09:01:00,77.0,74.0,-100.00,SE,140,0.0,0.0,90,0.00,,,0.00,75.000000,,2013-09-03 14:01:00,
2013-09-03 09:21:00,84.0,75.0,-100.00,WSW,256,0.0,0.0,74,0.00,,,0.00,283.000000,,2013-09-03 14:21:00,
2013-09-03 09:32:00,84.0,75.0,-100.00,WSW,256,0.0,0.0,74,0.00,,,0.00,283.000000,,2013-09-03 14:32:00,
2013-09-03 09:42:00,84.0,75.0,-100.00,WSW,256,0.0,0.0,74,0.00,,,0.00,283.000000,,2013-09-03 14:42:00,
2013-09-03 09:52:00,84.0,75.0,-100.00,WSW,256,0.0,0.0,74,0.00,,,0.00,283.000000,,2013-09-03 14:52:00,
2013-09-03 10:02:00,84.0,75.0,-100.00,WSW,256,0.0,0.0,74,0.00,,,0.00,283.000000,,2013-09-03 15:02:00,
2013-09-03 10:03:00,87.0,72.0,-100.00,WNW,301,4.0,11.0,62,0.00,,,0.00,504.000000,,2013-09-03 15:03:00,
2013-09-03 10:43:00,87.0,72.0,-100.00,WNW,301,4.0,11.0,62,0.00,,,0.00,504.000000,,2013-09-03 15:43:00,
2013-09-03 10:54:00,87.0,72.0,-100.00,WNW,301,4.0,11.0,62,0.00,,,0.00,504.000000,,2013-09-03 15:54:00,
2013-09-03 11:03:00,92.0,72.0,-100.00,SSW,210,2.0,9.0,52,0.00,,,0.00,701.000000,,2013-09-03 16:03:00,
2013-09-03 11:43:00,92.0,72.0,-100.00,SSW,210,2.0,9.0,52,0.00,,,0.00,701.000000,,2013-09-03 16:43:00,
2013-09-03 11:54:00,92.0,72.0,-100.00,SSW,210,2.0,9.0,52,0.00,,,0.00,701.000000,,2013-09-03 16:54:00,
2013-09-03 12:43:00,95.0,72.0,-100.00,East,80,5.0,10.0,48,0.00,,,0.00,858.000000,,2013-09-03 17:43:00,
2013-09-03 12:52:00,95.0,72.0,-100.00,East,80,5.0,10.0,48,0.00,,,0.00,858.000000,,2013-09-03 17:52:00,
2013-09-03 13:02:00,95.0,72.0,-100.00,East,80,5.0,10.0,48,0.00,,,0.00,858.000000,,2013-09-03 18:02:00,
2013-09-03 13:43:00,97.0,70.0,-100.00,NW,320,5.0,10.0,42,0.00,,,0.00,898.000000,,2013-09-03 18:43:00,
2013-09-03 13:52:00,97.0,70.0,-100.00,NW,320,5.0,10.0,42,0.00,,,0.00,898.000000,,2013-09-03 18:52:00,
2013-09-03 14:02:00,97.0,70.0,-100.00,NW,320,5.0,10.0,42,0.00,,,0.00,898.000000,,2013-09-03 19:02:00,
2013-09-03 14:42:00,100.0,71.0,-100.00,North,356,3.0,7.0,40,0.00,,,0.00,597.000000,,2013-09-03 19:42:00,
2013-09-03 14:52:00,100.0,71.0,-100.00,North,356,3.0,7.0,40,0.00,,,0.00,597.000000,,2013-09-03 19:52:00,
2013-09-03 15:02:00,100.0,71.0,-100.00,North,356,3.0,7.0,40,0.00,,,0.00,597.000000,,2013-09-03 20:02:00,
2013-09-03 15:22:00,99.0,65.0,-100.00,WNW,301,5.0,12.0,33,0.00,,,0.00,775.000000,,2013-09-03 20:22:00,
2013-09-03 15:32:00,99.0,65.0,-100.00,WNW,301,5.0,12.0,33,0.00,,,0.00,775.000000,,2013-09-03 20:32:00,
2013-09-03 15:42:00,99.0,65.0,-100.00,WNW,301,5.0,12.0,33,0.00,,,0.00,775.000000,,2013-09-03 20:42:00,
2013-09-03 15:53:00,99.0,65.0,-100.00,WNW,301,5.0,12.0,33,0.00,,,0.00,775.000000,,2013-09-03 20:53:00,
2013-09-03 16:01:00,99.0,65.0,-100.00,WNW,301,5.0,12.0,33,0.00,,,0.00,775.000000,,2013-09-03 21:01:00,
2013-09-03 16:03:00,92.0,63.0,-100.00,NNE,22,8.0,26.0,38,0.07,,,0.07,269.000000,,2013-09-03 21:03:00,
2013-09-03 16:22:00,92.0,63.0,-100.00,NNE,22,8.0,26.0,38,0.07,,,0.07,269.000000,,2013-09-03 21:22:00,
2013-09-03 16:34:00,92.0,63.0,-100.00,NNE,22,8.0,26.0,38,0.07,,,0.07,269.000000,,2013-09-03 21:34:00,
2013-09-03 16:44:00,92.0,63.0,-100.00,NNE,22,8.0,26.0,38,0.07,,,0.07,269.000000,,2013-09-03 21:44:00,
2013-09-03 16:54:00,92.0,63.0,-100.00,NNE,22,8.0,26.0,38,0.07,,,0.07,269.000000,,2013-09-03 21:54:00,
2013-09-03 17:03:00,78.0,72.0,-100.00,South,182,6.0,23.0,82,0.18,,,0.25,74.000000,,2013-09-03 22:03:00,
2013-09-03 17:53:00,78.0,72.0,-100.00,South,182,6.0,23.0,82,0.18,,,0.25,74.000000,,2013-09-03 22:53:00,
2013-09-03 18:23:00,78.0,70.0,-100.00,SSW,200,4.0,12.0,76,0.00,,,0.25,94.000000,,2013-09-03 23:23:00,
2013-09-03 18:34:00,78.0,70.0,-100.00,SSW,200,4.0,12.0,76,0.00,,,0.25,94.000000,,2013-09-03 23:34:00,
2013-09-03 18:42:00,78.0,70.0,-100.00,SSW,200,4.0,12.0,76,0.00,,,0.25,94.000000,,2013-09-03 23:42:00,
2013-09-03 18:54:00,78.0,70.0,-100.00,SSW,200,4.0,12.0,76,0.00,,,0.25,94.000000,,2013-09-03 23:54:00,
2013-09-03 19:02:00,78.0,70.0,-100.00,SSW,200,4.0,12.0,76,0.00,,,0.25,94.000000,,2013-09-04 00:02:00,
2013-09-03 19:22:00,78.0,70.0,-100.00,SE,146,3.0,10.0,76,0.00,,,0.25,51.000000,,2013-09-04 00:22:00,
2013-09-03 19:32:00,78.0,70.0,-100.00,SE,146,3.0,10.0,76,0.00,,,0.25,51.000000,,2013-09-04 00:32:00,
2013-09-03 19:42:00,78.0,70.0,-100.00,SE,146,3.0,10.0,76,0.00,,,0.25,51.000000,,2013-09-04 00:42:00,
2013-09-03 19:52:00,78.0,70.0,-100.00,SE,146,3.0,10.0,76,0.00,,,0.25,51.000000,,2013-09-04 00:52:00,
2013-09-03 20:01:00,78.0,70.0,-100.00,SE,146,3.0,10.0,76,0.00,,,0.25,51.000000,,2013-09-04 01:01:00,
2013-09-03 20:22:00,76.0,70.0,-100.00,SW,214,1.0,5.0,83,0.00,,,0.25,10.000000,,2013-09-04 01:22:00,
2013-09-03 20:32:00,76.0,70.0,-100.00,SW,214,1.0,5.0,83,0.00,,,0.25,10.000000,,2013-09-04 01:32:00,
2013-09-03 20:42:00,76.0,70.0,-100.00,SW,214,1.0,5.0,83,0.00,,,0.25,10.000000,,2013-09-04 01:42:00,
2013-09-03 20:53:00,76.0,70.0,-100.00,SW,214,1.0,5.0,83,0.00,,,0.25,10.000000,,2013-09-04 01:53:00,
2013-09-03 21:02:00,76.0,70.0,-100.00,SW,214,1.0,5.0,83,0.00,,,0.25,10.000000,,2013-09-04 02:02:00,
2013-09-03 21:03:00,75.0,71.0,-100.00,SSE,159,3.0,6.0,86,0.00,,,0.25,0.000000,,2013-09-04 02:03:00,
2013-09-03 21:22:00,75.0,71.0,-100.00,SSE,159,3.0,6.0,86,0.00,,,0.25,0.000000,,2013-09-04 02:22:00,
2013-09-03 21:32:00,75.0,71.0,-100.00,SSE,159,3.0,6.0,86,0.00,,,0.25,0.000000,,2013-09-04 02:32:00,
2013-09-03 21:43:00,75.0,71.0,-100.00,SSE,159,3.0,6.0,86,0.00,,,0.25,0.000000,,2013-09-04 02:43:00,
2013-09-03 21:52:00,75.0,71.0,-100.00,SSE,159,3.0,6.0,86,0.00,,,0.25,0.000000,,2013-09-04 02:52:00,
2013-09-03 22:03:00,75.0,71.0,-100.00,South,186,0.0,4.0,87,0.00,,,0.25,0.000000,,2013-09-04 03:03:00,
2013-09-03 22:23:00,75.0,71.0,-100.00,South,186,0.0,4.0,87,0.00,,,0.25,0.000000,,2013-09-04 03:23:00,
2013-09-03 22:35:00,75.0,71.0,-100.00,South,186,0.0,4.0,87,0.00,,,0.25,0.000000,,2013-09-04 03:35:00,
2013-09-03 22:44:00,75.0,71.0,-100.00,South,186,0.0,4.0,87,0.00,,,0.25,0.000000,,2013-09-04 03:44:00,
2013-09-03 22:54:00,75.0,71.0,-100.00,South,186,0.0,4.0,87,0.00,,,0.25,0.000000,,2013-09-04 03:54:00,
2013-09-03 23:03:00,74.0,71.0,-100.00,NNW,332,0.0,4.0,91,0.00,,,0.25,0.000000,,2013-09-04 04:03:00,
2013-09-03 23:24:00,74.0,71.0,-100.00,NNW,332,0.0,4.0,91,0.00,,,0.25,0.000000,,2013-09-04 04:24:00,
2013-09-03 23:33:00,74.0,71.0,-100.00,NNW,332,0.0,4.0,91,0.00,,,0.25,0.000000,,2013-09-04 04:33:00,
2013-09-03 23:44:00,74.0,71.0,-100.00,NNW,332,0.0,4.0,91,0.00,,,0.25,0.000000,,2013-09-04 04:44:00,
2013-09-03 23:54:00,74.0,71.0,-100.00,NNW,332,0.0,4.0,91,0.00,,,0.25,0.000000,,2013-09-04 04:54:00,